Yakima, WA
on Sunday, December 2, 2012

Sunday
Previous Day Next Day
Daily Summary
 ActualAverageRecord
Temperature
Mean Temperature °F 31°F  
Max Temperature 56°F 39°F 64°F (1975)
Min Temperature 39°F 23°F 3°F (2006)
Degree Days
Heating Degree Days 17 34  
Month to date heating degree days 36 67  
Since 1 July heating degree days 1274 1600  
Cooling Degree Days 0 0  
Month to date cooling degree days 0 0  
Year to date cooling degree days 667 472  
Moisture
Dew Point 38°F   
Average Humidity 69    
Maximum Humidity 96    
Minimum Humidity 41    
Precipitation
Precipitation 0.46 in 0.05 in 0.93 in (1980)
Month to date precipitation 0.47 0.10  
Year to date precipitation 7.66 6.82  
Snow
Snow 0.00 in 0.30 in 7.20 in (1985)
Month to date snowfall 0.6  
Year to date snowfall 22.2 12.8  
Since 1 July snowfall 0.7 4.2  
Snow Depth 0.00 in   
Wind
Wind Speed 8 mph   
Max Wind Speed 25 mph   
Max Gust Speed 31 mph   
Visibility 8 miles   
Events Rain   

Key: T is trace of precipitation, MM is missing value
Source: NWS Daily Summary
Time(PST)TemperatureDew PointHumidity Pressure Visibility Wind DirectionWind SpeedGust SpeedPrecipitationEvents Conditions
12:40 AM 46.4°F 42.8°F 87% 29.36 in 7.0 miles SE 8.1 mph - 0.00 in Rain Light Rain
12:53 AM 46.0°F 43.0°F 89% 29.35 in 5.0 miles SSE 9.2 mph - 0.02 in Rain Rain
1:06 AM 46.4°F 42.8°F 87% 29.34 in 4.0 miles SSE 6.9 mph - 0.04 in Rain Rain
1:53 AM 46.0°F 43.0°F 89% 29.32 in 3.0 miles SW 5.8 mph - 0.19 in Rain Rain
1:57 AM 44.6°F 42.8°F 93% 29.31 in 3.0 miles WSW 10.4 mph - 0.01 in Rain Rain
2:14 AM 42.8°F 41.0°F 93% 29.31 in 2.5 miles WSW 6.9 mph - 0.08 in Rain Rain
2:23 AM 42.8°F 41.0°F 93% 29.29 in 3.0 miles WSW 5.8 mph - 0.11 in Rain Rain
2:53 AM 43.0°F 41.0°F 93% 29.29 in 5.0 miles WSW 4.6 mph - 0.19 in Rain Light Rain
3:14 AM 42.8°F 41.0°F 93% 29.25 in 9.0 miles West 3.5 mph - 0.01 in Rain Light Rain
3:49 AM 42.8°F 39.2°F 87% 29.24 in 9.0 miles WSW 5.8 mph - 0.02 in Rain Light Rain
3:53 AM 42.1°F 39.0°F 89% 29.25 in 7.0 miles SW 5.8 mph - 0.03 in Rain Rain
3:58 AM 42.8°F 39.2°F 87% 29.23 in 6.0 miles WSW 4.6 mph - 0.01 in Rain Light Rain
4:53 AM 42.1°F 39.0°F 89% 29.25 in 10.0 miles West 4.6 mph - 0.03 in Rain Light Rain
5:53 AM 43.0°F 39.0°F 86% 29.24 in 10.0 miles ENE 5.8 mph - 0.00 in   Overcast
6:53 AM 44.1°F 37.0°F 76% 29.25 in 10.0 miles WSW 3.5 mph - N/A   Partly Cloudy
7:53 AM 39.0°F 36.0°F 89% 29.30 in 10.0 miles WSW 5.8 mph - N/A   Scattered Clouds
8:53 AM 43.0°F 39.0°F 86% 29.34 in 10.0 miles NW 4.6 mph - N/A   Scattered Clouds
9:53 AM 48.9°F 41.0°F 74% 29.38 in 10.0 miles Calm Calm - N/A   Scattered Clouds
10:53 AM 50.0°F 39.9°F 68% 29.43 in 10.0 miles East 4.6 mph - N/A   Partly Cloudy
11:53 AM 54.0°F 35.1°F 49% 29.46 in 10.0 miles NE 8.1 mph - N/A   Partly Cloudy
12:53 PM 54.0°F 30.0°F 40% 29.50 in 10.0 miles WSW 11.5 mph 21.9 mph N/A   Scattered Clouds
1:53 PM 54.0°F 30.9°F 41% 29.55 in 10.0 miles West 8.1 mph - N/A   Partly Cloudy
2:53 PM 51.1°F 35.1°F 54% 29.59 in 10.0 miles South 17.3 mph - N/A   Scattered Clouds
3:53 PM 48.0°F 35.1°F 61% 29.62 in 10.0 miles South 16.1 mph - N/A   Scattered Clouds
4:53 PM 46.9°F 35.1°F 63% 29.66 in 10.0 miles South 17.3 mph 27.6 mph N/A   Mostly Cloudy
5:53 PM 46.0°F 34.0°F 63% 29.69 in 10.0 miles Variable 3.5 mph - N/A   Clear
6:53 PM 46.0°F 34.0°F 63% 29.70 in 10.0 miles Calm Calm - N/A   Clear
7:53 PM 45.0°F 34.0°F 65% 29.73 in 10.0 miles Variable 6.9 mph - N/A   Clear
8:53 PM 43.0°F 33.1°F 68% 29.75 in 10.0 miles NNW 8.1 mph - N/A   Clear
9:53 PM 43.0°F 34.0°F 71% 29.78 in 10.0 miles NE 5.8 mph - N/A   Clear
10:53 PM 46.9°F 36.0°F 66% 29.79 in 10.0 miles South 19.6 mph 27.6 mph N/A   Scattered Clouds
11:53 PM 46.9°F 36.0°F 66% 29.80 in 10.0 miles South 17.3 mph 26.5 mph N/A   Scattered Clouds
Moon Phase
Dec. 02 Dec. 06 Dec. 13 Dec. 20 Dec. 28
Sunrise:07:27 AM (PST) Moon Rise:08:15 PM (PST)12/2
Sunset:04:16 PM (PST) Moon Set:10:14 AM (PST)12/2

Copyright © 2014 The Weather Underground, Inc.